NOAA NWS Hourly Roundups by Site

Regional Weather Roundup for State College, PA

To Select Another Site Choose from List

Select Site:  

104
ASUS41 KCTP 261510
RWRCTP

REGIONAL WEATHER ROUNDUP
NATIONAL WEATHER SERVICE STATE COLLEGE PA
1000 AM EST WED FEB 26 2020

Note: "fair" indicates few or no clouds below 12,000 feet with no
significant weather and/or obstructions to visibility.

* = STATION THAT DOES NOT REPORT PRECIPITATION /E.G. RAIN...SNOW...ETC/
    THUNDER OR FOG.

PAZ002>004-007>009-013>016-020>023-029>032-261600-
WESTERN PENNSYLVANIA

CITY           SKY/WX    TMP DP  RH WIND       PRES   REMARKS
ERIE           CLOUDY    35  32  88 NE9       29.85S
MEADVILLE      CLOUDY    39  38  96 S6        29.80F
FRANKLIN       CLOUDY    41  39  93 SW5       29.82S FOG
NEW CASTLE     CLOUDY    41  41 100 VRB5      29.83F FOG
BEAVER COUNTY  CLOUDY    43  43 100 SW9       29.83  FOG
BUTLER         CLOUDY    45  43  93 SW8       29.83F
PITTSBURGH INT CLOUDY    46  42  86 SW8       29.83S
PITTSBURGH     PTSUNNY   49  45  86 SW9       29.82F
INDIANA*       CLOUDY    48  48 100 W12       29.87S
LATROBE        NOT AVBL
WASHINGTON CO* CLOUDY    49  46  90 SW10      29.86F
$$

PAZ004>006-010>012-017>019-024>028-033>037-041-042-045-046-049>053-261600-
CENTRAL PENNSYLVANIA

CITY           SKY/WX    TMP DP  RH WIND       PRES   REMARKS
BRADFORD       FOG       35  34  96 SE5       29.81S VSB 1/4
ST MARYS       FOG       36  36 100 CALM      29.85  VSB 3/4
DUBOIS         FOG       40  39  97 CALM      29.81F VSB 1/2
CLEARFIELD     FOG       39  38  96 CALM      29.84F VSB 1/4
JOHNSTOWN      PTSUNNY   48  42  80 SW8       29.82S
SOMERSET       PTSUNNY   48  43  81 S8        29.84S
ALTOONA        CLOUDY    47  44  90 S10       29.86S
STATE COLLEGE  FOG       41  41 100 CALM      29.86F VSB 1/8
REEDSVILLE     FOG       46  46 100 CALM      29.87  VSB 1
WELLSBORO      FOG       34  34 100 SE5       29.84F VSB<1/4
WILLIAMSPORT   CLOUDY    44  42  93 NE7       29.89F FOG
SELINSGROVE    CLOUDY    47  45  93 S5        29.91S
FT INDIANTOWN  FOG       45  45 100 CALM      29.93S VSB 5/8
CAPITAL CITY   CLOUDY    49  46  90 E6        29.92F FOG
HARRISBURG     CLOUDY    49  46  90 SE5       29.92F FOG
YORK           CLOUDY    49  46  90 SE5       29.92F FOG
$$

PAZ038>040-043-044-047-048-054-055-060>062-067>071-261600-
EASTERN PENNSYLVANIA

CITY           SKY/WX    TMP DP  RH WIND       PRES   REMARKS
TOWANDA        CLOUDY    37  37 100 CALM      29.92R
SCRANTON       CLOUDY    45  41  86 NE5       29.91S
MOUNT POCONO   FOG       38  37  97 E5        29.91R VSB<1/4
HAZLETON       FOG       41  41 100 SE6       29.93R VSB 1/2
LEHIGHTON      NOT AVBL
ALLENTOWN      CLOUDY    45  41  86 NE7       29.95R FOG
QN CITY/ALNTWN FOG       43  43 100 NE5       29.96S VSB 1/4
QUAKERTOWN*    CLOUDY    46  46 100 CALM      29.95R
PERKASIE*      CLOUDY    46  46 100 CALM      29.96R
DOYLESTOWN     CLOUDY    48  45  89 CALM      29.94R
READING        CLOUDY    48  46  93 S8        29.93R
LANCASTER      CLOUDY    48  46  93 SE6       29.94S FOG
COATESVILLE    CLOUDY    46  46 100 CALM      29.95S FOG
WEST CHESTER   CLOUDY    46  45  93 CALM      29.95S FOG
POTTSTOWN      CLOUDY    45  45 100 CALM      29.97R FOG
BLUE BELL      CLOUDY    47  46  97 E5        29.95R FOG
NORTH PHILA    CLOUDY    50  46  86 NE3       29.96S FOG
PHILADELPHIA   CLOUDY    49  44  83 E5        29.96R
$$



 

View Past Reports for State College, PA.

Products Courtesy of NOAA-NWS
NWS Information Parsing Script by Ken True at Saratoga Weather - Script by SE Lincoln Weather.